[[{"header":{"parameterUnit":"m.s-1","parameterCategory":1,"la1":30.2991,"la2":30.254,"lo1":-89.0895,"lo2":-89.0444,"dy":0.0017,"dx":0.0017,"nx":28,"ny":28,"refTime":"2023-11-08T03:00:00:Z","depth":0,"parameterNumber":2,"parameterNumberName":"U-component_of_WINDS"},"data":[0,0,0,0,0,0,0,0,0,0,0,0,0,0,0,0,0,0,0,0,0,0,0,0,0,0,0,0,0,0,0,0,0,0,0,0,0,0,0,0,0,0,0,0,0,0,0,0,0,0,0,0,0,0,0,0,0,0,-1.2743,-1.2743,0,-1.273,-1.273,-1.273,-1.2634,-1.2631,-1.2629,-1.2627,-1.2614,-1.2616,-1.2618,0,0,0,0,0,0,0,0,0,0,0,0,0,-1.2685,-1.2687,-1.2743,-1.2743,-1.2743,-1.273,-1.273,-1.273,-1.2634,-1.2631,-1.2628,-1.2625,-1.2613,-1.2616,-1.2618,0,0,0,0,0,0,0,0,0,0,0,0,0,-1.2695,-1.2687,-1.2743,-1.2693,-1.2689,-1.273,-1.273,-1.273,-1.2635,-1.2631,-1.2627,-1.2624,-1.2613,-1.2615,-1.2618,-1.2706,0,0,-1.2627,-1.2628,0,0,0,0,0,0,0,0,-1.2695,-1.2698,-1.2701,-1.2697,-1.2692,-1.268,-1.2705,-1.2722,-1.2635,-1.2655,-1.2627,-1.2622,-1.2639,-1.2639,-1.2644,-1.2706,-1.2705,-1.2627,-1.2629,-1.263,-1.2631,0,0,0,0,0,0,0,-1.2694,-1.2698,-1.2738,-1.2701,-1.2695,-1.2672,-1.2669,-1.2708,-1.2667,-1.2653,-1.2646,-1.2646,-1.2636,-1.2642,-1.2643,-1.2705,-1.2627,-1.2629,-1.2631,-1.2632,-1.2838,-1.2842,0,0,0,0,0,0,-1.27,-1.2698,-1.2738,-1.2737,-1.2685,-1.2676,-1.2673,-1.2687,-1.2666,-1.266,-1.2649,-1.2641,-1.2639,-1.264,-1.2643,-1.2744,-1.263,-1.2632,-1.2634,-1.2834,-1.2839,-1.2843,0,0,0,0,0,0,-1.27,-1.2705,-1.2739,-1.2716,-1.2718,-1.2681,-1.2697,-1.2689,-1.2695,-1.2663,-1.2655,-1.2663,-1.2636,-1.2639,-1.2691,-1.2743,-1.2634,-1.2636,-1.283,-1.2836,-1.2841,-1.2949,0,0,0,0,0,0,-1.2698,-1.2705,-1.2738,-1.2717,-1.272,-1.2787,-1.27,-1.2691,-1.27,-1.269,-1.2674,-1.2668,-1.2634,-1.2688,-1.2694,-1.2745,-1.2638,-1.2825,-1.2833,-1.2839,-1.2941,-1.2958,-1.2972,0,0,0,0,0,-1.2697,-1.2769,-1.274,-1.2746,-1.276,-1.279,-1.2792,-1.2751,-1.2705,-1.2737,-1.2717,-1.2669,-1.2736,-1.2694,-1.27,-1.2752,-1.2822,-1.283,-1.2839,-1.2934,-1.2954,-1.2972,0,0,0,0,0,0,-1.2797,-1.2765,-1.2733,-1.2801,-1.2799,-1.2774,-1.2814,-1.2774,-1.2785,-1.2776,-1.2724,-1.2721,-1.2782,-1.2772,-1.2725,-1.2837,-1.2771,-1.2781,-1.2841,-1.286,-1.2876,-1.2876,-1.2641,0,0,0,0,0,-1.2827,-1.2854,-1.2825,-1.2888,-1.2888,-1.2852,-1.2864,-1.2832,-1.2828,-1.2827,-1.281,-1.2809,-1.283,-1.2844,-1.2862,-1.2939,-1.2934,-1.2978,-1.2994,-1.3007,-1.3017,-1.3057,-1.3076,-1.2871,-1.2871,-1.2871,0,0,-1.2889,-1.2875,-1.2895,-1.2907,-1.2902,-1.2932,-1.2852,-1.2886,-1.2908,-1.2832,-1.2881,-1.2869,-1.2864,-1.2929,-1.2957,-1.2923,-1.3073,-1.3018,-1.3029,-1.3031,-1.3068,-1.3087,-1.3105,-1.2877,-1.2876,-1.2875,0,0,-1.3017,-1.3009,-1.306,-1.3057,-1.3051,-1.3026,-1.3039,-1.3021,-1.301,-1.3058,-1.3002,-1.3027,-1.3064,-1.3063,-1.3067,-1.3197,-1.3152,-1.3204,-1.3286,-1.3326,-1.3342,-1.3356,-1.3402,-1.342,-1.3213,-1.3214,-1.3214,0,-1.3095,-1.3137,-1.3092,-1.313,-1.3138,-1.3071,-1.3123,-1.3122,-1.3122,-1.3129,-1.3091,-1.3136,-1.3128,-1.3192,-1.3224,-1.323,-1.3243,-1.3205,-1.3344,-1.3357,-1.337,-1.3413,-1.3431,-1.322,-1.3219,-1.3218,-1.3218,0,-1.3233,-1.3263,-1.3305,-1.3307,-1.3319,-1.3364,-1.3327,-1.3344,-1.3313,-1.3292,-1.3342,-1.3331,-1.3345,-1.3358,-1.3327,-1.3418,-1.3397,-1.3353,-1.3285,-1.3396,-1.3436,-1.3452,-1.3229,-1.3226,-1.3225,-1.3223,0,0,-1.3422,-1.3399,-1.3416,-1.3416,-1.3405,-1.3427,-1.347,-1.3484,-1.35,-1.3503,-1.3537,-1.3571,-1.3529,-1.3534,-1.3503,-1.3538,-1.3642,-1.3489,-1.3488,-1.3518,-1.3742,-1.3775,-1.3795,-1.3613,-1.3616,-1.3618,-1.3742,0,-1.3545,-1.3615,-1.3577,-1.3653,-1.3681,-1.3619,-1.3656,-1.3654,-1.3636,-1.3658,-1.3638,-1.3663,-1.3607,-1.3609,-1.3642,-1.3622,-1.3686,-1.3613,-1.3645,-1.3646,-1.3647,-1.3816,-1.3851,-1.3968,-1.3758,-1.376,-1.3762,0,-1.3697,-1.3706,-1.3785,-1.377,-1.378,-1.3814,-1.3824,-1.3845,-1.3841,-1.3826,-1.3833,-1.3793,-1.3834,-1.3768,-1.3824,-1.3776,-1.3787,-1.3779,-1.3783,-1.3784,-1.371,-1.3821,-1.4005,-1.4022,-1.3786,-1.3784,-1.3783,0,-1.3826,-1.3859,-1.3911,-1.3913,-1.3896,-1.3921,-1.3916,-1.3908,-1.392,-1.3929,-1.3935,-1.395,-1.3957,-1.3969,-1.3935,-1.389,-1.3996,-1.3926,-1.3984,-1.3985,-1.4008,-1.4007,-1.4196,-1.4017,-1.4017,-1.4016,-1.4016,0,-1.3967,-1.4018,-1.3969,-1.4,-1.4056,-1.4012,-1.4068,-1.4055,-1.405,-1.4078,-1.4026,-1.4054,-1.4007,-1.4031,-1.4004,-1.4055,-1.4059,-1.4048,-1.404,-1.4052,-1.4053,-1.4058,-1.4048,-1.4021,-1.402,-1.4019,-1.4018,0,-1.412,-1.409,-1.4142,-1.4122,-1.4118,-1.416,-1.4143,-1.4172,-1.4152,-1.4188,-1.4195,-1.4163,-1.4188,-1.4155,-1.4177,-1.4159,-1.4228,-1.4208,-1.4229,-1.4223,-1.4283,-1.4277,-1.448,-1.4505,-1.4311,-1.4313,-1.4314,0,-1.4211,-1.4249,-1.4234,-1.4249,-1.4246,-1.4272,-1.4283,-1.4242,-1.4256,-1.4255,-1.4285,-1.4305,-1.4319,-1.4362,-1.4341,-1.4358,-1.4338,-1.4408,-1.434,-1.4351,-1.4339,-1.4336,-1.434,-1.4422,-1.4424,-1.4426,-1.4427,0,-1.4376,-1.436,-1.4378,-1.4391,-1.4406,-1.4415,-1.442,-1.4435,-1.4392,-1.4411,-1.4436,-1.4447,-1.447,-1.4491,-1.4502,-1.4496,-1.4455,-1.4449,-1.4463,-1.4476,-1.4486,-1.4481,-1.4266,-1.4445,-1.4443,-1.4442,-1.4441,-1.444,-1.4501,-1.4532,-1.4526,-1.4548,-1.4548,-1.4554,-1.458,-1.4563,-1.4583,-1.4598,-1.4573,-1.4605,-1.4601,-1.4612,-1.4611,-1.4636,-1.4606,-1.4626,-1.4631,-1.4637,-1.4646,-1.4483,-1.4638,-1.4637,-1.4637,-1.4637,-1.4636,0,-1.4662,-1.4656,-1.4677,-1.4686,-1.4704,-1.4664,-1.4667,-1.4685,-1.4714,-1.4714,-1.4729,-1.4759,-1.4779,-1.4761,-1.4778,-1.4801,-1.4783,-1.4807,-1.4804,-1.4804,-1.4672,-1.4658,-1.4822,-1.4822,-1.4822,-1.4822,-1.4822,-1.4822,-1.4749,-1.4799,-1.4782,-1.4832,-1.4825,-1.4855,-1.4861,-1.4867,-1.4866,-1.4902,-1.4919,-1.4906,-1.4899,-1.4916,-1.4933,-1.4927,-1.4936,-1.4967,-1.4954,-1.4831,-1.4813,-1.4796,-1.4782,-1.4969,-1.497,-1.5084,-1.5085,-1.5086]},{"header":{"parameterUnit":"m.s-1","parameterCategory":1,"la1":30.2991,"la2":30.254,"lo1":-89.0895,"lo2":-89.0444,"dy":0.0017,"dx":0.0017,"nx":28,"ny":28,"refTime":"2023-11-08T03:00:00:Z","depth":0,"parameterNumber":3,"parameterNumberName":"V-component_of_WINDS"},"data":[0,0,0,0,0,0,0,0,0,0,0,0,0,0,0,0,0,0,0,0,0,0,0,0,0,0,0,0,0,0,0,0,0,0,0,0,0,0,0,0,0,0,0,0,0,0,0,0,0,0,0,0,0,0,0,0,0,0,1.0799,1.0798,0,1.076,1.076,1.0759,1.0817,1.0819,1.0821,1.0823,1.078,1.0777,1.0774,0,0,0,0,0,0,0,0,0,0,0,0,0,1.0921,1.0919,1.0799,1.0798,1.0798,1.076,1.076,1.0759,1.0816,1.0819,1.0821,1.0823,1.0781,1.0777,1.0773,0,0,0,0,0,0,0,0,0,0,0,0,0,1.0874,1.0918,1.0799,1.0822,1.0824,1.076,1.076,1.0759,1.0816,1.0819,1.0822,1.0825,1.0782,1.0777,1.0773,1.0684,0,0,1.0759,1.0757,0,0,0,0,0,0,0,0,1.0876,1.0869,1.0819,1.082,1.0822,1.0796,1.0787,1.0734,1.0815,1.0819,1.0823,1.0826,1.0783,1.0778,1.0764,1.0682,1.068,1.0759,1.0756,1.0754,1.0753,0,0,0,0,0,0,0,1.088,1.0871,1.0783,1.0818,1.082,1.0834,1.083,1.0777,1.0784,1.0818,1.0823,1.0817,1.0784,1.0768,1.0764,1.068,1.0759,1.0755,1.0752,1.075,1.0524,1.0521,0,0,0,0,0,0,1.088,1.0874,1.0785,1.0782,1.0857,1.0829,1.0825,1.0801,1.0785,1.0785,1.0815,1.082,1.0775,1.0769,1.0762,1.0657,1.0754,1.075,1.0747,1.0528,1.0524,1.052,0,0,0,0,0,0,1.0883,1.0872,1.0786,1.0829,1.0819,1.0824,1.0796,1.0799,1.0784,1.0782,1.0783,1.0798,1.0777,1.0769,1.0704,1.0657,1.0748,1.0744,1.0532,1.0526,1.0522,1.0447,0,0,0,0,0,0,1.0886,1.0872,1.0839,1.0828,1.0817,1.0728,1.0794,1.0796,1.0776,1.0783,1.0766,1.0766,1.0779,1.071,1.0699,1.0652,1.074,1.0536,1.0529,1.0524,1.0453,1.044,1.0428,0,0,0,0,0,1.089,1.0818,1.0837,1.0826,1.0775,1.0725,1.0719,1.0735,1.0772,1.0738,1.0737,1.0767,1.0664,1.0703,1.0691,1.0642,1.0539,1.0531,1.0524,1.0459,1.0442,1.0428,0,0,0,0,0,0,1.0822,1.0817,1.0838,1.076,1.0743,1.0735,1.0693,1.0717,1.0688,1.0695,1.0716,1.0712,1.0643,1.0636,1.068,1.0556,1.0608,1.0597,1.0562,1.0546,1.0534,1.0536,1.0736,0,0,0,0,0,1.0798,1.0759,1.0757,1.0688,1.0679,1.0687,1.0666,1.0681,1.0663,1.0656,1.0651,1.0632,1.0596,1.0571,1.0538,1.0454,1.0451,1.0414,1.0402,1.0391,1.0381,1.0337,1.0321,1.0496,1.0496,1.0496,0,0,1.0747,1.074,1.0714,1.0675,1.0663,1.0621,1.0681,1.0634,1.0603,1.0649,1.0587,1.0583,1.0564,1.0489,1.0456,1.0481,1.0333,1.0382,1.0374,1.0369,1.0328,1.0311,1.0296,1.0491,1.0492,1.0493,0,0,1.0634,1.0625,1.0567,1.0555,1.0538,1.0544,1.053,1.052,1.0519,1.0458,1.0491,1.0456,1.0392,1.0378,1.0362,1.0246,1.0272,1.0235,1.0168,1.0124,1.011,1.0098,1.0056,1.0041,1.0225,1.0225,1.0225,0,1.0573,1.0512,1.0534,1.0486,1.0467,1.0509,1.0451,1.0438,1.0409,1.0396,1.0426,1.0348,1.0338,1.0261,1.0233,1.0219,1.0204,1.0235,1.0111,1.0099,1.0088,1.0048,1.0032,1.0221,1.0221,1.0222,1.0222,0,1.0438,1.0396,1.0352,1.0325,1.0302,1.0249,1.0262,1.0236,1.0254,1.0257,1.0195,1.0185,1.0151,1.0134,1.015,1.0059,1.0075,1.0108,1.016,1.0066,1.0029,1.0014,1.0214,1.0216,1.0217,1.0218,0,0,1.0277,1.0266,1.0249,1.0237,1.0223,1.019,1.0139,1.0107,1.0084,1.0065,1.0022,0.9969,1.0,0.9982,0.9997,0.9959,0.9867,0.9996,0.9996,0.9971,0.9766,0.9741,0.9723,0.9886,0.9883,0.9881,0.9768,0,1.0163,1.0076,1.0095,1.0009,0.9971,1.0011,0.9967,0.9953,0.9955,0.9923,0.9926,0.9888,0.9931,0.9921,0.9885,0.9886,0.9826,0.9895,0.9845,0.9843,0.9847,0.9703,0.9676,0.9569,0.9753,0.9751,0.9749,0,1.0018,0.9994,0.9904,0.9897,0.9882,0.9842,0.9814,0.9783,0.9769,0.9773,0.9755,0.9778,0.9727,0.9782,0.9713,0.9759,0.9741,0.9738,0.9735,0.9729,0.9789,0.9692,0.9536,0.9519,0.9727,0.9729,0.973,0,0.9908,0.9854,0.9793,0.9783,0.9773,0.9744,0.9739,0.9727,0.9707,0.9684,0.9671,0.9641,0.9625,0.9601,0.9616,0.9654,0.9544,0.96,0.9546,0.9545,0.9518,0.9519,0.9355,0.9509,0.9509,0.951,0.951,0,0.9778,0.9721,0.9744,0.9706,0.9644,0.9668,0.9606,0.9605,0.9595,0.9558,0.9592,0.9556,0.9579,0.9545,0.9557,0.9497,0.949,0.9492,0.9495,0.9487,0.9487,0.9474,0.9481,0.9506,0.9507,0.9507,0.9508,0,0.9643,0.9656,0.9593,0.959,0.9588,0.9542,0.954,0.9505,0.9512,0.9465,0.9455,0.9465,0.9427,0.944,0.9399,0.9407,0.9332,0.9345,0.9336,0.9339,0.9284,0.9288,0.9103,0.908,0.9251,0.925,0.9248,0,0.9557,0.9515,0.9509,0.9487,0.9479,0.9444,0.9424,0.9447,0.9425,0.9407,0.9374,0.934,0.9313,0.9251,0.9254,0.9224,0.9236,0.9174,0.9231,0.9225,0.9233,0.9235,0.9231,0.9161,0.9159,0.9157,0.9156,0,0.9404,0.9414,0.9385,0.9358,0.9334,0.9314,0.9297,0.9277,0.9299,0.9272,0.9235,0.9215,0.9175,0.914,0.9113,0.9107,0.9134,0.9138,0.9124,0.9115,0.9111,0.9111,0.9303,0.9142,0.9143,0.9144,0.9145,0.9145,0.9291,0.9255,0.9246,0.9212,0.9202,0.9186,0.9154,0.9157,0.9127,0.9096,0.9112,0.9069,0.9057,0.9024,0.9015,0.8981,0.9005,0.8984,0.8979,0.8973,0.8965,0.9118,0.8977,0.8977,0.8977,0.8978,0.8978,0,0.9138,0.9135,0.9104,0.908,0.9054,0.9085,0.9068,0.9044,0.9006,0.8993,0.8968,0.8925,0.8893,0.8894,0.8864,0.8837,0.8849,0.8828,0.8829,0.8827,0.8946,0.8961,0.8819,0.8819,0.8819,0.8819,0.8819,0.8819,0.9056,0.8997,0.9006,0.8944,0.8941,0.8899,0.8887,0.8872,0.8863,0.8814,0.8788,0.879,0.8783,0.8754,0.8725,0.8727,0.8713,0.8687,0.8693,0.8803,0.8819,0.8834,0.8848,0.8685,0.8685,0.8577,0.8576,0.8576]}]]